This demonstration page uses our WeatherBlox Daily Observations layout. Learn more.

Left ArrowRight Arrow

Hourly Observations for March 14, 2020

Temp ( °F °C ) Dew Point ( °F °C ) Humidity (%) Winds ( mph kmh ) Pressure ( in mb ) Visibility ( mi km ) Precip ( " mm )
12:26 am 00:26 Mostly Cloudy with Light Rain 36 2 34 1 93 93 ESE 8 13 30.42 1030 10 16 0.00 0.00
12:56 am 00:56 Cloudy with Light Rain 35 1.8 33 0.5 91 91 ESE 7 11 30.42 1030 10 16 0.02 0.51
1:26 am 01:26 Cloudy with Light Snow 34 1 32 0 93 93 E 6 9 30.41 1030 6 10 0.00 0.00
1:41 am 01:41 Cloudy with Light Snow 34 1 32 0 93 93 ENE 6 9 30.41 1030 5 8 0.00 0.00
1:56 am 01:56 Cloudy with Light Snow 33 0.7 31 -0.3 93 93 NE 5 7 30.41 1030 5 8 0.03 0.76
2:56 am 02:56 Cloudy with Light Snow 33 0.4 31 -0.5 94 94 NE 5 7 30.43 1030 2 4 0.04 1.02
3:11 am 03:11 Cloudy with Light Snow 32 0 32 0 100 100 NNE 5 7 30.43 1030 2 3 0.00 0.00
3:56 am 03:56 Cloudy with Light Snow 33 0.3 31 -0.4 95 95 NNE 3 6 30.42 1030 5 8 0.07 1.78
3:58 am 03:58 Cloudy with Light Snow 32 0 32 0 100 100 NE 3 6 30.42 1030 1 2 0.00 0.00
4:15 am 04:15 Cloudy with Light Snow 32 0 32 0 100 100 NNE 5 7 30.42 1030 1 2 0.00 0.00
4:30 am 04:30 Cloudy with Light Snow 32 0 32 0 100 100 NNE 5 7 30.42 1030 1 2 0.00 0.00
4:47 am 04:47 Cloudy with Light Snow 32 0 32 0 100 100 NE 7 11 30.41 1030 1 2 0.00 0.00
4:56 am 04:56 Cloudy with Light Snow 33 0.3 31 -0.4 95 95 NE 7 11 30.41 1030 3 5 0.04 1.02
5:06 am 05:06 Partly Cloudy with Scattered Snow Showers 32 0 32 0 100 100 NE 7 11 30.41 1030 1 2 0.00 0.00
5:24 am 05:24 Partly Cloudy with Scattered Snow Showers 32 0 32 0 100 100 NE 7 11 30.41 1030 3 5 0.00 0.00
5:56 am 05:56 Cloudy with Light Snow 33 0.4 31 -0.5 94 94 NNE 7 11 30.42 1030 3 4 0.07 1.78
6:26 am 06:26 Cloudy with Light Snow 34 1 32 0 93 93 NE 7 11 30.42 1030 3 5 0.00 0.00
6:56 am 06:56 Cloudy with Light Snow 33 0.5 31 -0.4 94 94 NE 6 9 30.43 1030 4 6 0.04 1.02
7:11 am 07:11 Cloudy with Light Snow 34 1 32 0 93 93 NE 7 11 30.43 1030 3 4 0.00 0.00
7:56 am 07:56 Cloudy with Light Snow 33 0.5 31 -0.4 94 94 NE 8 13 30.45 1031 3 5 0.04 1.02
8:56 am 08:56 Cloudy with Light Snow 33 0.3 30 -1.2 90 90 ENE 14 22 30.46 1032 9 14 0.02 0.51
9:56 am 09:56 Cloudy with Light Snow 32 0 28 -2.1 86 86 ENE 14 22 30.48 1032 9 14 0.00 0.00
10:11 am 10:11 Cloudy 32 0 28 -2 87 87 NE 16 26 30.48 1032 10 16 0.00 0.00
10:50 am 10:50 Cloudy with Light Snow 32 0 28 -2 87 87 NE 13 20 30.49 1032 9 14 0.00 0.00
10:56 am 10:56 Cloudy with Light Snow 32 0.1 28 -2.3 84 84 NE 12 19 30.49 1032 8 13 0.00 0.00
11:56 am 11:56 Cloudy 33 0.4 29 -1.7 86 86 ENE 15 24 30.50 1033 9 14 0.01 0.25
12:56 pm 12:56 Cloudy 33 0.7 29 -1.9 83 83 ENE 13 20 30.53 1034 10 16 0.00 0.00
1:56 pm 13:56 Cloudy 34 1.2 29 -1.5 82 82 NE 13 20 30.52 1033 10 16 0.00 0.00
2:56 pm 14:56 Cloudy 35 1.4 29 -1.7 80 80 ENE 13 20 30.50 1033 10 16 0.00 0.00
3:56 pm 15:56 Cloudy 35 1.9 30 -1 81 81 ENE 13 20 30.51 1033 10 16 0.00 0.00
4:11 pm 16:11 Cloudy 36 2 30 -1 81 81 ENE 14 22 30.51 1033 10 16 0.00 0.00
4:56 pm 16:56 Cloudy 36 2.1 29 -1.5 77 77 E 14 22 30.50 1033 10 16 0.00 0.00
5:56 pm 17:56 Cloudy 36 2.1 29 -1.7 76 76 ENE 9 15 30.53 1034 10 16 0.00 0.00
6:56 pm 18:56 Cloudy 35 1.8 29 -1.6 78 78 NE 13 20 30.54 1034 10 16 0.00 0.00
7:56 pm 19:56 Cloudy 35 1.5 29 -1.4 81 81 NE 8 13 30.57 1035 10 16 0.00 0.00
8:56 pm 20:56 Cloudy 34 1.3 29 -1.9 79 79 NE 9 15 30.59 1036 10 16 0.00 0.00
9:56 pm 21:56 Cloudy 34 1.2 28 -2.2 78 78 ENE 8 13 30.60 1036 10 16 0.00 0.00
10:56 pm 22:56 Cloudy 34 1.1 28 -2.1 79 79 NE 6 9 30.61 1037 10 16 0.00 0.00
11:56 pm 23:56 Cloudy 34 1 28 -2.1 80 80 NE 8 13 30.63 1037 10 16 0.00 0.00

Powered by AerisWeather